• In Hungary
  • List of Countries
  • For 7 days
  • Water Temperature
  • Satellite Maps
  • Weather Map
  • News
  • Weather Widgets
  • user-avatar
    Login

    Hourly Weather Cairo

    Today, 12 December, Tuesday

    Time Temperature Precipitation Wind Pressure Humidity
    00:00 +16°C° 0 mm 2 mps 760 mmHg 49%
    01:00 +15°C° 0 mm 2 mps 760 mmHg 47%
    02:00 +15°C° 0 mm 2 mps 760 mmHg 51%
    03:00 +14°C° 0 mm 1 mps 760 mmHg 51%
    04:00 +14°C° 0 mm 1 mps 760 mmHg 51%
    05:00 +14°C° 0 mm 1 mps 760 mmHg 51%
    06:00 +14°C° 0 mm 1 mps 760 mmHg 49%
    07:00 +15°C° 0 mm 1 mps 760 mmHg 47%
    08:00 +18°C° 0 mm 1 mps 760 mmHg 48%
    09:00 +20°C° 0 mm 1 mps 760 mmHg 41%
    10:00 +22°C° 0 mm 1 mps 760 mmHg 34%
    11:00 +24°C° 0 mm 1 mps 760 mmHg 27%
    12:00 +25°C° 0 mm 2 mps 760 mmHg 24%
    13:00 +26°C° 0 mm 2 mps 760 mmHg 21%
    14:00 +28°C° 0 mm 3 mps 759 mmHg 18%
    15:00 +26°C° 0 mm 3 mps 759 mmHg 23%
    16:00 +24°C° 0 mm 3 mps 759 mmHg 27%
    17:00 +23°C° 0 mm 2 mps 760 mmHg 32%
    18:00 +21°C° 0 mm 2 mps 760 mmHg 40%
    19:00 +19°C° 0 mm 2 mps 760 mmHg 48%
    20:00 +18°C° 0 mm 2 mps 760 mmHg 56%
    21:00 +18°C° 0 mm 2 mps 761 mmHg 65%
    22:00 +17°C° 0 mm 2 mps 761 mmHg 74%
    23:00 +17°C° 0 mm 2 mps 761 mmHg 83%

    Tomorrow, 13 December, Wednesday

    Time Temperature Precipitation Wind Pressure Humidity
    00:00 +16°C° 0 mm 2 mps 761 mmHg 87%
    01:00 +16°C° 0 mm 2 mps 761 mmHg 90%
    02:00 +15°C° 0 mm 2 mps 761 mmHg 93%
    03:00 +15°C° 0 mm 2 mps 761 mmHg 94%
    04:00 +15°C° 0 mm 2 mps 761 mmHg 95%
    05:00 +15°C° 0 mm 2 mps 761 mmHg 96%
    06:00 +16°C° 0 mm 2 mps 761 mmHg 95%
    07:00 +16°C° 0 mm 3 mps 761 mmHg 93%
    08:00 +16°C° 0 mm 3 mps 762 mmHg 92%
    09:00 +18°C° 0 mm 3 mps 762 mmHg 83%
    10:00 +19°C° 0 mm 4 mps 762 mmHg 75%
    11:00 +20°C° 0 mm 4 mps 762 mmHg 67%
    12:00 +20°C° 0 mm 5 mps 762 mmHg 63%
    13:00 +21°C° 0 mm 5 mps 761 mmHg 59%
    14:00 +22°C° 0 mm 5 mps 761 mmHg 55%
    15:00 +21°C° 0 mm 5 mps 761 mmHg 58%
    16:00 +20°C° 0 mm 4 mps 761 mmHg 60%
    17:00 +19°C° 0 mm 4 mps 761 mmHg 63%
    18:00 +18°C° 0 mm 4 mps 761 mmHg 68%
    19:00 +17°C° 0 mm 4 mps 761 mmHg 72%
    20:00 +17°C° 0 mm 4 mps 761 mmHg 76%
    21:00 +15°C° 0 mm 4 mps 762 mmHg 81%
    22:00 +14°C° 0 mm 3 mps 762 mmHg 85%
    23:00 +14°C° 0 mm 3 mps 762 mmHg 89%

    Day after tomorrow, 14 December, Thursday

    Time Temperature Precipitation Wind Pressure Humidity
    00:00 +13°C° 0 mm 3 mps 762 mmHg 91%
    01:00 +14°C° 0 mm 2 mps 762 mmHg 92%
    02:00 +14°C° 0 mm 2 mps 762 mmHg 94%
    03:00 +14°C° 0 mm 2 mps 761 mmHg 94%
    04:00 +14°C° 0 mm 2 mps 761 mmHg 94%
    05:00 +14°C° 0 mm 2 mps 761 mmHg 94%
    06:00 +14°C° 0 mm 2 mps 761 mmHg 92%
    07:00 +15°C° 0 mm 2 mps 762 mmHg 90%
    08:00 +15°C° 0 mm 2 mps 762 mmHg 88%
    09:00 +17°C° 0 mm 3 mps 762 mmHg 78%
    10:00 +18°C° 0 mm 3 mps 762 mmHg 69%
    11:00 +20°C° 0 mm 4 mps 762 mmHg 59%
    12:00 +21°C° 0 mm 4 mps 761 mmHg 53%
    13:00 +22°C° 0 mm 4 mps 761 mmHg 48%
    14:00 +23°C° 0 mm 4 mps 760 mmHg 42%
    15:00 +22°C° 0 mm 4 mps 760 mmHg 44%
    16:00 +21°C° 0 mm 3 mps 760 mmHg 47%
    17:00 +20°C° 0 mm 3 mps 760 mmHg 49%
    18:00 +19°C° 0 mm 3 mps 760 mmHg 57%
    19:00 +18°C° 0 mm 3 mps 760 mmHg 64%
    20:00 +17°C° 0 mm 4 mps 761 mmHg 71%
    21:00 +16°C° 0 mm 3 mps 761 mmHg 76%
    22:00 +16°C° 0 mm 3 mps 761 mmHg 80%
    23:00 +14°C° 0 mm 3 mps 761 mmHg 85%

    15 December, Friday

    Time Temperature Precipitation Wind Pressure Humidity
    00:00 +15°C° 0 mm 2 mps 761 mmHg 87%
    01:00 +14°C° 0 mm 2 mps 761 mmHg 89%
    02:00 +14°C° 0 mm 1 mps 761 mmHg 91%
    03:00 +14°C° 0 mm 1 mps 760 mmHg 92%
    04:00 +14°C° 0 mm 1 mps 760 mmHg 92%
    05:00 +13°C° 0 mm 1 mps 760 mmHg 92%
    06:00 +14°C° 0 mm 1 mps 760 mmHg 90%
    07:00 +15°C° 0 mm 1 mps 761 mmHg 87%
    08:00 +15°C° 0 mm 1 mps 761 mmHg 85%
    09:00 +17°C° 0 mm 2 mps 761 mmHg 77%
    10:00 +18°C° 0 mm 2 mps 761 mmHg 68%
    11:00 +20°C° 0 mm 3 mps 761 mmHg 60%
    12:00 +21°C° 0 mm 3 mps 761 mmHg 56%
    13:00 +21°C° 0 mm 3 mps 760 mmHg 52%
    14:00 +22°C° 0 mm 3 mps 760 mmHg 49%
    15:00 +21°C° 0 mm 3 mps 760 mmHg 50%
    16:00 +21°C° 0 mm 3 mps 760 mmHg 51%
    17:00 +20°C° 0 mm 3 mps 760 mmHg 53%
    18:00 +20°C° 0 mm 3 mps 761 mmHg 56%
    19:00 +19°C° 0 mm 3 mps 761 mmHg 58%
    20:00 +19°C° 0 mm 2 mps 762 mmHg 61%
    21:00 +18°C° 0 mm 2 mps 762 mmHg 66%
    22:00 +17°C° 0 mm 2 mps 762 mmHg 70%
    23:00 +17°C° 0 mm 2 mps 762 mmHg 74%

    16 December, Saturday

    Time Temperature Precipitation Wind Pressure Humidity
    00:00 +16°C° 0 mm 2 mps 762 mmHg 78%
    01:00 +16°C° 0 mm 2 mps 761 mmHg 81%
    02:00 +15°C° 0 mm 2 mps 761 mmHg 84%
    03:00 +15°C° 0 mm 2 mps 761 mmHg 86%
    04:00 +14°C° 0 mm 2 mps 761 mmHg 87%
    05:00 +14°C° 0 mm 2 mps 761 mmHg 89%
    06:00 +14°C° 0 mm 2 mps 761 mmHg 87%
    07:00 +15°C° 0 mm 2 mps 762 mmHg 85%
    08:00 +15°C° 0 mm 2 mps 762 mmHg 83%
    09:00 +17°C° 0 mm 3 mps 762 mmHg 74%
    10:00 +18°C° 0 mm 3 mps 762 mmHg 65%
    11:00 +20°C° 0 mm 4 mps 762 mmHg 56%
    12:00 +21°C° 0 mm 4 mps 761 mmHg 51%
    13:00 +22°C° 0 mm 4 mps 761 mmHg 47%
    14:00 +22°C° 0 mm 4 mps 760 mmHg 42%
    15:00 +21°C° 0 mm 4 mps 760 mmHg 44%
    16:00 +21°C° 0 mm 4 mps 760 mmHg 45%
    17:00 +20°C° 0 mm 3 mps 760 mmHg 47%
    18:00 +19°C° 0 mm 3 mps 760 mmHg 52%
    19:00 +18°C° 0 mm 3 mps 761 mmHg 57%
    20:00 +17°C° 0 mm 3 mps 761 mmHg 62%
    21:00 +16°C° 0 mm 3 mps 761 mmHg 66%
    22:00 +16°C° 0 mm 3 mps 761 mmHg 70%
    23:00 +14°C° 0 mm 3 mps 761 mmHg 75%

    17 December, Sunday

    Time Temperature Precipitation Wind Pressure Humidity
    00:00 +15°C° 0 mm 2 mps 761 mmHg 76%
    01:00 +15°C° 0 mm 2 mps 761 mmHg 77%
    02:00 +14°C° 0 mm 2 mps 760 mmHg 78%
    03:00 +14°C° 0 mm 2 mps 760 mmHg 78%
    04:00 +14°C° 0 mm 2 mps 760 mmHg 79%
    05:00 +13°C° 0 mm 2 mps 760 mmHg 79%
    06:00 +14°C° 0 mm 2 mps 761 mmHg 76%
    07:00 +14°C° 0 mm 2 mps 761 mmHg 73%
    08:00 +15°C° 0 mm 2 mps 762 mmHg 70%
    09:00 +17°C° 0 mm 2 mps 761 mmHg 63%
    10:00 +18°C° 0 mm 2 mps 761 mmHg 56%
    11:00 +20°C° 0 mm 2 mps 761 mmHg 49%
    12:00 +21°C° 0 mm 3 mps 760 mmHg 42%
    13:00 +22°C° 0 mm 3 mps 759 mmHg 35%
    14:00 +24°C° 0 mm 3 mps 759 mmHg 29%
    15:00 +24°C° 0 mm 2 mps 759 mmHg 29%
    16:00 +23°C° 0 mm 2 mps 759 mmHg 30%
    17:00 +22°C° 0 mm 1 mps 759 mmHg 30%
    18:00 +21°C° 0 mm 1 mps 760 mmHg 32%
    19:00 +21°C° 0 mm 1 mps 760 mmHg 34%
    20:00 +20°C° 0 mm 1 mps 761 mmHg 36%
    21:00 +20°C° 0 mm 1 mps 761 mmHg 37%
    22:00 +20°C° 0 mm 1 mps 761 mmHg 39%
    23:00 +19°C° 0 mm 2 mps 761 mmHg 41%
    Show more